Ahmedabad, India

10:44 AM IST on June 26, 2017 (GMT +0530)
Ahmedabad

Weather History for VAAH - November, 2012

Change the Weather History Date:

Tuesday, November 20, 2012

  Actual Average Record
Temperature  
Mean Temperature 73 °F -  
Max Temperature 88 °F 83 °F 96 °F (2011)
Min Temperature 58 °F 57 °F 48 °F (2001)
Cooling Degree Days 8    
Growing Degree Days 23 (Base 50)    
Moisture  
Dew Point 52 °F    
Average Humidity 48    
Maximum Humidity 77    
Minimum Humidity 17    
Precipitation  
Precipitation 0.00 in 0.01 in - ()
Sea Level Pressure  
Sea Level Pressure 29.93 in    
Wind  
Wind Speed 3 mph ()    
Max Wind Speed 9 mph    
Max Gust Speed -    
Visibility 2.5 miles    
Events      
Averages and records for this station are not official NWS values.
T = Trace of Precipitation, MM = Missing Value Source: Averaged Metar Reports

Daily Weather History Graph

Daily Weather History Graph

Search for Another Location

Airport or City:

Trip Planner

Search our weather history database for the weather conditions in past years. The results will help you decide how hot, cold, wet, or windy it might be!

Date:

Astronomy

Nov. 20, 2012 Rise Set
Actual Time 6:56 AM IST 5:53 PM IST
Civil Twilight 6:32 AM IST 6:17 PM IST
Nautical Twilight 6:05 AM IST 6:45 PM IST
Astronomical Twilight 5:37 AM IST 7:12 PM IST
Moon 12:36 PM IST (11/20) No Moon Set
Length of Visible Light 11h 45m
Length of Day
10h 57m
Waxing Crescent, 46% of the Moon is Illuminated
Nov 20
Waxing Crescent
Nov 20
First Quarter
Nov 28
Full
Dec 6
Last Quarter
Dec 13
New

Hourly Weather History & Observations

Time (IST) Temp. Heat Index Dew Point Humidity Pressure Visibility Wind Dir Wind Speed Gust Speed Precip Events Conditions
12:10 AM 66.2 °F - 53.6 °F 64% 29.92 in 2.5 mi Calm Calm - N/A   Haze
1:10 AM 64.4 °F - 53.6 °F 68% 29.92 in 2.5 mi Calm Calm - N/A   Haze
1:40 AM 62.6 °F - 55.4 °F 77% 29.92 in 2.5 mi Calm Calm - N/A   Haze
2:10 AM 64.4 °F - 53.6 °F 68% 29.92 in 2.5 mi Calm Calm - N/A   Haze
2:30 AM 67 °F - 53 °F 51% 29.94 in 2 mi NE 3.5 mph - -  
2:40 AM 66.2 °F - 51.8 °F 60% 29.92 in 2.5 mi East 3.5 mph - N/A   Haze
3:10 AM 66.2 °F - 51.8 °F 60% 29.92 in 2.5 mi Variable 2.3 mph - N/A   Haze
3:40 AM 66.2 °F - 51.8 °F 60% 29.92 in 2.5 mi Variable 2.3 mph - N/A   Smoke
4:10 AM 66.2 °F - 51.8 °F 60% 29.92 in 2.5 mi East 4.6 mph - N/A   Smoke
4:40 AM 64.4 °F - 50.0 °F 59% 29.92 in 2.5 mi Variable 3.5 mph - N/A   Smoke
5:10 AM 60.8 °F - 51.8 °F 72% 29.92 in 2.5 mi Variable 3.5 mph - N/A   Haze
5:30 AM 63 °F - 51 °F 56% 29.94 in 2 mi ENE 2.3 mph - -   Haze
5:40 AM 59.0 °F - 51.8 °F 77% 29.92 in 2.5 mi Variable 2.3 mph - N/A   Haze
6:10 AM 59.0 °F - 51.8 °F 77% 29.95 in 2.2 mi Variable 2.3 mph - N/A   Haze
7:40 AM 59.0 °F - 46.4 °F 63% 29.98 in 1.6 mi NE 4.6 mph - N/A   Haze
8:10 AM 64.4 °F - 50.0 °F 59% 29.98 in 1.2 mi East 4.6 mph - N/A   Haze
8:30 AM 70 °F - 49 °F 37% 30.00 in 2 mi East 5.8 mph - -   Haze
8:40 AM 69.8 °F - 48.2 °F 46% 29.98 in 1.2 mi East 5.8 mph - N/A   Smoke
9:40 AM 77.0 °F - 51.8 °F 41% 30.01 in 2.5 mi East 5.8 mph - N/A   Smoke
10:10 AM 80.6 °F - 50.0 °F 34% 30.01 in 2.5 mi East 8.1 mph - N/A   Smoke
10:40 AM 82.4 °F - 46.4 °F 28% 29.98 in 2.5 mi ENE 9.2 mph - N/A   Smoke
11:10 AM 84.2 °F - 48.2 °F 29% 29.98 in 2.5 mi East 6.9 mph - N/A   Smoke
11:30 AM 85 °F - 49 °F 19% 30.00 in 2 mi East 5.8 mph - -  
12:10 PM 87.8 °F - 50.0 °F 27% 29.95 in 3.1 mi ESE 6.9 mph - N/A   Smoke
12:40 PM 87.8 °F - 51.8 °F 29% 29.95 in 3.1 mi East 6.9 mph - N/A   Smoke
1:10 PM 89.6 °F - 51.8 °F 27% 29.92 in 3.1 mi ESE 5.8 mph - N/A   Smoke
1:40 PM 89.6 °F - 51.8 °F 27% 29.89 in 3.1 mi East 6.9 mph - N/A   Smoke
2:10 PM 89.6 °F - 50.0 °F 26% 29.89 in 3.1 mi East 6.9 mph - N/A   Smoke
2:30 PM 87 °F - 48 °F 17% 29.91 in 2 mi SE 4.6 mph - -  
3:40 PM 89.6 °F - 48.2 °F 24% 29.83 in 3.1 mi East 8.1 mph - N/A   Smoke
4:10 PM 87.8 °F - 48.2 °F 25% 29.83 in 3.1 mi ENE 6.9 mph - N/A   Smoke
4:40 PM 87.8 °F - 48.2 °F 25% 29.83 in 3.1 mi East 4.6 mph - N/A   Smoke
5:10 PM 86.0 °F - 48.2 °F 27% 29.86 in 3.1 mi East 5.8 mph - N/A   Smoke
5:30 PM 82 °F - 51 °F 23% 29.89 in 2 mi NE 2.3 mph - -  
5:40 PM 84.2 °F - 50.0 °F 30% 29.86 in 3.1 mi NE 5.8 mph - N/A   Smoke
6:40 PM 80.6 °F 82.3 °F 64.4 °F 58% 29.89 in 2.5 mi East 5.8 mph - N/A   Smoke
7:10 PM 78.8 °F - 60.8 °F 54% 29.89 in 2.5 mi East 5.8 mph - N/A   Smoke
7:40 PM 75.2 °F - 60.8 °F 61% 29.89 in 2.5 mi Calm Calm - N/A   Smoke
8:30 PM 70 °F - 55 °F 50% 29.94 in 2 mi Calm Calm - -   Haze
8:40 PM 71.6 °F - 57.2 °F 60% 29.92 in 2.5 mi Variable 3.5 mph - N/A   Smoke
9:10 PM 69.8 °F - 55.4 °F 60% 29.92 in 2.5 mi NNE 4.6 mph - N/A   Smoke
9:40 PM 69.8 °F - 51.8 °F 53% 29.95 in 2.5 mi East 5.8 mph - N/A   Smoke
10:10 PM 69.8 °F - 55.4 °F 60% 29.95 in 2.5 mi NE 4.6 mph - N/A   Smoke
10:40 PM 68.0 °F - 51.8 °F 56% 29.92 in 2.5 mi NNE 4.6 mph - N/A   Smoke
11:10 PM 66.2 °F - 55.4 °F 68% 29.92 in 2.5 mi North 4.6 mph - N/A   Haze
11:30 PM 66 °F - 55 °F 58% 29.95 in 2 mi Calm Calm - -   Haze
11:40 PM 68.0 °F - 53.6 °F 60% 29.92 in 2.5 mi Variable 2.3 mph - N/A   Haze